Bowling Green, Kentucky, United States (42101)
Lat: 36.99N, Lon: 86.44W
Wx Zone: KYZ071
Local Info
Past Weather Observations for Today

NOTE: This archive is for the closest National Weather Service station to Bowling Green. Information may differ from the station used for current weather conditions.

Click here for Long-term Archive

Time Weather Temperature Dewpoint Humidity Pressure Winds Precip Visibility
21:15
Overcast
Fog
55°F / 13°C 55°F / 13°C 100% 30.01 in
(1016 mb)
Calm - 1/4SM
20:55
Overcast
Fog
55°F / 13°C 55°F / 13°C 100% 30.01 in
(1016 mb)
Calm - 1/2SM
20:35
Overcast
Fog
55°F / 13°C 55°F / 13°C 100% 30.01 in
(1016 mb)
Calm - 1/4SM
20:15
Mostly Cloudy
Fog And Mist
57°F / 14°C 57°F / 14°C 100% 30.01 in
(1016 mb)
Calm - 1SM
19:55
Obscured
Fog And Mist
59°F / 15°C 59°F / 15°C 100% 30.01 in
(1016 mb)
Calm - 1 3/4SM
19:35
Clear
57°F / 14°C 57°F / 14°C 100% 30.01 in
(1016 mb)
Calm - 7SM
19:15
Clear
59°F / 15°C 59°F / 15°C 100% 30.01 in
(1016 mb)
Calm - 7SM
18:55
Clear
59°F / 15°C 59°F / 15°C 100% 30.01 in
(1016 mb)
Calm - 7SM
18:35
Clear
59°F / 15°C 59°F / 15°C 100% 30.01 in
(1016 mb)
Calm - 7SM
18:15
Clear
63°F / 17°C 59°F / 15°C 88% 30.01 in
(1016 mb)
Calm - 10SM
17:55
Clear
63°F / 17°C 59°F / 15°C 88% 30.01 in
(1016 mb)
Calm - 10SM
17:35
Clear
63°F / 17°C 59°F / 15°C 88% 30.01 in
(1016 mb)
Calm - 10SM
17:15
Clear
66°F / 19°C 59°F / 15°C 78% 30.01 in
(1016 mb)
Calm - 10SM
16:55
Clear
68°F / 20°C 59°F / 15°C 73% 30.01 in
(1016 mb)
Calm - 10SM
16:35
Clear
72°F / 22°C 59°F / 15°C 65% 30.01 in
(1016 mb)
Calm - 10SM
16:15
Clear
73°F / 23°C 61°F / 16°C 65% 29.98 in
(1015 mb)
Calm - 10SM
15:55
Clear
75°F / 24°C 59°F / 15°C 57% 30.01 in
(1016 mb)
Calm - 10SM
15:35
Clear
75°F / 24°C 59°F / 15°C 57% 30.01 in
(1016 mb)
W 3.5 mph
(W 6 kph)
- 10SM
15:15
Clear
75°F / 24°C 59°F / 15°C 57% 30.01 in
(1016 mb)
SSW 5.8 mph
(SSW 9 kph)
- 10SM
14:55
Clear
75°F / 24°C 59°F / 15°C 57% 29.98 in
(1015 mb)
SSW 5.8 mph
(SSW 9 kph)
- 10SM
14:35
Partly Cloudy
75°F / 24°C 59°F / 15°C 57% 30.01 in
(1016 mb)
SSW 4.6 mph
(SSW 7 kph)
- 10SM
14:15
Mostly Cloudy
73°F / 23°C 59°F / 15°C 61% 30.01 in
(1016 mb)
Calm - 10SM
13:55
Partly Cloudy
73°F / 23°C 59°F / 15°C 61% 30.01 in
(1016 mb)
SW 3.5 mph
(SW 6 kph)
- 10SM
13:35
Clear
73°F / 23°C 59°F / 15°C 61% 30.01 in
(1016 mb)
SW 4.6 mph
(SW 7 kph)
- 10SM
13:15
Clear
73°F / 23°C 57°F / 14°C 57% 30.01 in
(1016 mb)
SSE 3.5 mph
(SSE 6 kph)
- 10SM
12:55
Clear
72°F / 22°C 57°F / 14°C 61% 30.01 in
(1016 mb)
Calm - 10SM
12:35
Clear
72°F / 22°C 57°F / 14°C 61% 30.01 in
(1016 mb)
SW 6.9 mph
(SW 11 kph)
- 10SM
12:15
Clear
70°F / 21°C 55°F / 13°C 60% 30.01 in
(1016 mb)
SW 5.8 mph
(SW 9 kph)
- 10SM
11:55
Partly Cloudy
70°F / 21°C 55°F / 13°C 60% 30.04 in
(1017 mb)
S 6.9 mph
(S 11 kph)
- 10SM
11:35
Overcast
68°F / 20°C 55°F / 13°C 64% 30.04 in
(1017 mb)
SW 4.6 mph
(SW 7 kph)
- 10SM
11:15
Overcast
66°F / 19°C 54°F / 12°C 64% 30.06 in
(1018 mb)
SW 3.5 mph
(SW 6 kph)
- 10SM
10:55
Overcast
64°F / 18°C 54°F / 12°C 68% 30.06 in
(1018 mb)
SW 6.9 mph
(SW 11 kph)
- 10SM
10:35
Overcast
63°F / 17°C 54°F / 12°C 73% 30.06 in
(1018 mb)
SSW 4.6 mph
(SSW 7 kph)
- 10SM
10:15
Overcast
61°F / 16°C 52°F / 11°C 72% 30.06 in
(1018 mb)
SW 3.5 mph
(SW 6 kph)
- 10SM
09:55
Overcast
61°F / 16°C 52°F / 11°C 72% 30.06 in
(1018 mb)
SW 4.6 mph
(SW 7 kph)
- 10SM
09:35
Overcast
59°F / 15°C 52°F / 11°C 77% 30.06 in
(1018 mb)
SSW 5.8 mph
(SSW 9 kph)
- 10SM
09:15
Overcast
57°F / 14°C 52°F / 11°C 82% 30.06 in
(1018 mb)
SW 4.6 mph
(SW 7 kph)
- 10SM
08:55
Overcast
55°F / 13°C 52°F / 11°C 88% 30.09 in
(1019 mb)
SSW 4.6 mph
(SSW 7 kph)
- 10SM
08:35
Overcast
55°F / 13°C 52°F / 11°C 88% 30.09 in
(1019 mb)
SSW 3.5 mph
(SSW 6 kph)
- 10SM
08:15
Overcast
54°F / 12°C 50°F / 10°C 88% 30.09 in
(1019 mb)
Calm - 7SM
07:55
Mostly Cloudy
52°F / 11°C 50°F / 10°C 94% 30.09 in
(1019 mb)
Calm - 7SM
07:35
Partly Cloudy
50°F / 10°C 48°F / 9°C 94% 30.09 in
(1019 mb)
Calm - 7SM
07:15
Partly Cloudy
Fog And Mist
48°F / 9°C 48°F / 9°C 100% 30.09 in
(1019 mb)
Calm - 5SM
06:55
Mostly Cloudy
Fog And Mist
46°F / 8°C 46°F / 8°C 100% 30.06 in
(1018 mb)
Calm - 5SM
06:35
Clear
Fog And Mist
43°F / 6°C 43°F / 6°C 100% 30.06 in
(1018 mb)
Calm - 5SM
06:15
Clear
Fog And Mist
43°F / 6°C 43°F / 6°C 100% 30.06 in
(1018 mb)
Calm - 4SM
05:55
Clear
41°F / 5°C 41°F / 5°C 100% 30.06 in
(1018 mb)
SE 3.5 mph
(SE 6 kph)
- 7SM
05:35
Partly Cloudy
Fog And Mist
43°F / 6°C 43°F / 6°C 100% 30.09 in
(1019 mb)
Calm - 5SM
05:15
Clear
43°F / 6°C 43°F / 6°C 100% 30.09 in
(1019 mb)
Calm - 7SM
04:55
Clear
Fog And Mist
43°F / 6°C 43°F / 6°C 100% 30.06 in
(1018 mb)
Calm - 5SM
04:35
Clear
43°F / 6°C 43°F / 6°C 100% 30.06 in
(1018 mb)
Calm - 7SM
04:15
Clear
43°F / 6°C 43°F / 6°C 100% 30.09 in
(1019 mb)
Calm - 7SM
03:55
Clear
43°F / 6°C 43°F / 6°C 100% 30.09 in
(1019 mb)
Calm - 7SM
03:35
Clear
43°F / 6°C 43°F / 6°C 100% 30.06 in
(1018 mb)
Calm - 7SM
03:15
Clear
43°F / 6°C 43°F / 6°C 100% 30.09 in
(1019 mb)
Calm - 7SM
02:55
Clear
43°F / 6°C 43°F / 6°C 100% 30.06 in
(1018 mb)
Calm - 7SM
02:35
Clear
43°F / 6°C 43°F / 6°C 100% 30.06 in
(1018 mb)
Calm - 7SM
02:15
Clear
Fog And Mist
41°F / 5°C 41°F / 5°C 100% 30.09 in
(1019 mb)
Calm - 5SM
01:55
Clear
Fog And Mist
43°F / 6°C 43°F / 6°C 100% 30.09 in
(1019 mb)
Calm - 5SM
01:35
Clear
Fog And Mist
43°F / 6°C 43°F / 6°C 100% 30.06 in
(1018 mb)
Calm - 4SM
01:15
Clear
Fog And Mist
43°F / 6°C 43°F / 6°C 100% 30.09 in
(1019 mb)
Calm - 5SM
00:55
Clear
Fog And Mist
43°F / 6°C 43°F / 6°C 100% 30.09 in
(1019 mb)
Calm - 4SM
00:35
Clear
Fog And Mist
43°F / 6°C 43°F / 6°C 100% 30.09 in
(1019 mb)
Calm - 5SM
00:15
Clear
Fog And Mist
43°F / 6°C 43°F / 6°C 100% 30.09 in
(1019 mb)
Calm - 4SM
Time Weather Temperature Dewpoint Humidity Pressure Winds Precip Visibility


Weather for websites

WeatherForYou.com, LLC is not responsible for any damages or problems caused by this service. Current weather conditions are obtained from the closest station including government and personal stations which may have varying degrees of accuracy. Weather forecasts are derived from the NOAA NDFD. Like all things, this site belongs to Jesus Christ... He just trusts me to maintain it. If you have any questions or comments email webmaster@weatherforyou.com

Copyright © 2014, WeatherForYou.com LLC. All rights reserved.